Time,TemperatureF,DewpointF,PressureIn,WindDirection,WindDirectionDegrees,WindSpeedMPH,WindSpeedGustMPH,Humidity,HourlyPrecipIn,Conditions,Clouds,dailyrainin,SoftwareType,DateUTC
2013-06-25 00:02:00,57.9,57.6,29.93,South,174,0.0,3.0,99,0.00,,,0.04,meteohub,2013-06-25 07:02:00,
2013-06-25 00:07:00,58.1,57.7,29.93,South,170,0.0,3.0,99,0.00,,,0.00,meteohub,2013-06-25 07:07:00,
2013-06-25 00:12:00,58.1,57.7,29.94,SE,144,0.0,5.0,99,0.00,,,0.00,meteohub,2013-06-25 07:12:00,
2013-06-25 00:17:00,58.3,57.9,29.93,SE,144,0.0,5.0,99,0.00,,,0.00,meteohub,2013-06-25 07:17:00,
2013-06-25 00:27:00,58.5,58.1,29.93,SSE,155,0.0,5.0,99,0.00,,,0.00,meteohub,2013-06-25 07:27:00,
2013-06-25 00:32:00,58.5,58.1,29.93,SSE,156,0.0,5.0,99,0.00,,,0.00,meteohub,2013-06-25 07:32:00,
2013-06-25 00:37:00,58.6,58.3,29.93,SSE,167,3.0,6.0,99,0.00,,,0.00,meteohub,2013-06-25 07:37:00,
2013-06-25 00:42:00,58.6,58.3,29.93,SSE,153,2.0,6.0,99,0.00,,,0.00,meteohub,2013-06-25 07:42:00,
2013-06-25 00:47:00,58.8,58.5,29.93,South,173,3.0,6.0,99,0.00,,,0.00,meteohub,2013-06-25 07:47:00,
2013-06-25 00:52:00,59.0,58.5,29.93,SE,142,2.0,6.0,98,0.00,,,0.00,meteohub,2013-06-25 07:52:00,
2013-06-25 00:57:00,59.2,58.6,29.93,SSE,166,1.0,6.0,98,0.00,,,0.00,meteohub,2013-06-25 07:57:00,
2013-06-25 01:02:00,59.2,58.6,29.93,SSE,167,1.0,6.0,98,0.00,,,0.00,meteohub,2013-06-25 08:02:00,
2013-06-25 01:07:00,59.4,58.8,29.93,SSE,163,0.0,5.0,98,0.00,,,0.00,meteohub,2013-06-25 08:07:00,
2013-06-25 01:12:00,59.4,58.8,29.93,SSE,150,3.0,5.0,98,0.00,,,0.00,meteohub,2013-06-25 08:12:00,
2013-06-25 01:17:00,59.4,58.5,29.93,SSE,165,4.0,5.0,97,0.00,,,0.00,meteohub,2013-06-25 08:17:00,
2013-06-25 01:22:00,59.4,58.5,29.93,SSE,155,0.0,5.0,97,0.00,,,0.00,meteohub,2013-06-25 08:22:00,
2013-06-25 01:27:00,59.5,58.6,29.93,SSE,151,1.0,4.0,97,0.00,,,0.00,meteohub,2013-06-25 08:27:00,
2013-06-25 01:32:00,59.5,58.6,29.93,South,179,0.0,4.0,97,0.00,,,0.00,meteohub,2013-06-25 08:32:00,
2013-06-25 01:37:00,59.7,58.8,29.93,SE,141,3.0,4.0,97,0.00,,,0.00,meteohub,2013-06-25 08:37:00,
2013-06-25 01:42:00,59.7,58.8,29.93,South,175,0.0,6.0,97,0.00,,,0.00,meteohub,2013-06-25 08:42:00,
2013-06-25 01:47:00,59.9,59.0,29.92,South,169,3.0,8.0,97,0.01,,,0.01,meteohub,2013-06-25 08:47:00,
2013-06-25 01:52:00,59.9,59.0,29.93,SE,146,1.0,8.0,97,0.01,,,0.01,meteohub,2013-06-25 08:52:00,
2013-06-25 01:57:00,59.9,59.0,29.92,SSE,159,0.0,5.0,97,0.01,,,0.01,meteohub,2013-06-25 08:57:00,
2013-06-25 02:02:00,59.9,59.0,29.93,South,175,5.0,5.0,97,0.01,,,0.01,meteohub,2013-06-25 09:02:00,
2013-06-25 02:07:00,59.9,59.0,29.93,SSE,157,2.0,5.0,97,0.01,,,0.01,meteohub,2013-06-25 09:07:00,
2013-06-25 02:12:00,59.9,59.0,29.93,SSE,159,1.0,5.0,97,0.01,,,0.01,meteohub,2013-06-25 09:12:00,
2013-06-25 02:17:00,59.9,59.0,29.93,SSE,148,0.0,5.0,97,0.01,,,0.01,meteohub,2013-06-25 09:17:00,
2013-06-25 02:22:00,59.7,58.8,29.93,SSE,148,0.0,4.0,97,0.01,,,0.01,meteohub,2013-06-25 09:22:00,
2013-06-25 02:27:00,59.7,58.8,29.93,SSE,158,1.0,4.0,97,0.01,,,0.01,meteohub,2013-06-25 09:27:00,
2013-06-25 02:32:00,59.7,58.8,29.93,SSE,167,0.0,4.0,97,0.01,,,0.01,meteohub,2013-06-25 09:32:00,
2013-06-25 02:37:00,59.5,58.6,29.93,SSE,152,2.0,4.0,97,0.02,,,0.02,meteohub,2013-06-25 09:37:00,
2013-06-25 02:42:00,59.5,58.6,29.93,SSE,167,3.0,4.0,97,0.02,,,0.02,meteohub,2013-06-25 09:42:00,
2013-06-25 02:47:00,59.5,59.0,29.93,South,171,0.0,4.0,98,0.01,,,0.02,meteohub,2013-06-25 09:47:00,
2013-06-25 02:57:00,59.5,59.0,29.92,SE,143,0.0,3.0,98,0.01,,,0.02,meteohub,2013-06-25 09:57:00,
2013-06-25 03:02:00,59.4,58.8,29.92,SSE,157,1.0,3.0,98,0.02,,,0.03,meteohub,2013-06-25 10:02:00,
2013-06-25 03:07:00,59.4,58.8,29.92,SSE,162,0.0,3.0,98,0.02,,,0.03,meteohub,2013-06-25 10:07:00,
2013-06-25 03:12:00,59.4,58.8,29.92,SSE,158,0.0,3.0,98,0.02,,,0.03,meteohub,2013-06-25 10:12:00,
2013-06-25 03:17:00,59.5,59.0,29.92,South,178,1.0,5.0,98,0.02,,,0.03,meteohub,2013-06-25 10:17:00,
2013-06-25 03:22:00,59.5,59.0,29.92,SSW,192,1.0,6.0,98,0.02,,,0.03,meteohub,2013-06-25 10:22:00,
2013-06-25 03:27:00,59.5,59.0,29.92,South,169,0.0,6.0,98,0.02,,,0.03,meteohub,2013-06-25 10:27:00,
2013-06-25 03:32:00,59.5,59.0,29.92,SSE,160,1.0,6.0,98,0.02,,,0.04,meteohub,2013-06-25 10:32:00,
2013-06-25 03:37:00,59.5,59.0,29.92,SSE,162,1.0,6.0,98,0.02,,,0.04,meteohub,2013-06-25 10:37:00,
2013-06-25 03:42:00,59.5,59.0,29.92,SSE,162,1.0,4.0,98,0.02,,,0.04,meteohub,2013-06-25 10:42:00,
2013-06-25 03:47:00,59.5,59.0,29.92,SSE,167,1.0,3.0,98,0.02,,,0.04,meteohub,2013-06-25 10:47:00,
2013-06-25 03:52:00,59.7,59.2,29.92,SSE,155,1.0,4.0,98,0.02,,,0.04,meteohub,2013-06-25 10:52:00,
2013-06-25 03:57:00,59.7,59.2,29.92,South,184,1.0,5.0,98,0.02,,,0.04,meteohub,2013-06-25 10:57:00,
2013-06-25 04:02:00,59.7,59.2,29.92,ESE,120,1.0,5.0,98,0.01,,,0.04,meteohub,2013-06-25 11:02:00,
2013-06-25 04:07:00,59.7,59.2,29.92,SE,144,0.0,5.0,98,0.02,,,0.05,meteohub,2013-06-25 11:07:00,
2013-06-25 04:12:00,59.7,59.2,29.91,SSE,159,0.0,8.0,98,0.02,,,0.05,meteohub,2013-06-25 11:12:00,
2013-06-25 04:17:00,59.7,59.2,29.91,SSE,154,0.0,8.0,98,0.03,,,0.06,meteohub,2013-06-25 11:17:00,
2013-06-25 04:22:00,59.7,59.2,29.91,South,177,1.0,8.0,98,0.03,,,0.06,meteohub,2013-06-25 11:22:00,
2013-06-25 04:27:00,59.9,59.4,29.91,SSE,153,3.0,5.0,98,0.03,,,0.06,meteohub,2013-06-25 11:27:00,
2013-06-25 04:32:00,59.9,59.4,29.91,SSE,154,4.0,5.0,98,0.02,,,0.06,meteohub,2013-06-25 11:32:00,
2013-06-25 04:37:00,60.1,59.5,29.91,SSE,158,3.0,5.0,98,0.02,,,0.06,meteohub,2013-06-25 11:37:00,
2013-06-25 04:42:00,60.1,59.5,29.91,ESE,123,0.0,5.0,98,0.02,,,0.06,meteohub,2013-06-25 11:42:00,
2013-06-25 04:47:00,60.1,59.5,29.91,SE,134,0.0,5.0,98,0.02,,,0.06,meteohub,2013-06-25 11:47:00,
2013-06-25 04:52:00,60.3,59.7,29.91,SSE,151,2.0,5.0,98,0.02,,,0.06,meteohub,2013-06-25 11:52:00,
2013-06-25 04:57:00,60.3,59.7,29.91,SSE,167,1.0,5.0,98,0.02,,,0.06,meteohub,2013-06-25 11:57:00,
2013-06-25 05:02:00,60.3,59.7,29.91,SSE,152,0.0,6.0,98,0.01,,,0.06,meteohub,2013-06-25 12:02:00,
2013-06-25 05:07:00,60.4,59.9,29.92,SE,128,2.0,6.0,98,0.01,,,0.06,meteohub,2013-06-25 12:07:00,
2013-06-25 05:12:00,60.4,59.9,29.91,SE,145,0.0,6.0,98,0.00,,,0.06,meteohub,2013-06-25 12:12:00,
2013-06-25 05:17:00,60.4,59.9,29.91,SSE,163,0.0,6.0,98,0.01,,,0.07,meteohub,2013-06-25 12:17:00,
2013-06-25 05:22:00,60.4,59.9,29.92,SSE,157,0.0,6.0,98,0.01,,,0.07,meteohub,2013-06-25 12:22:00,
2013-06-25 05:27:00,60.4,59.9,29.92,SE,131,4.0,5.0,98,0.01,,,0.07,meteohub,2013-06-25 12:27:00,
2013-06-25 05:32:00,60.4,59.9,29.92,SSE,158,3.0,7.0,98,0.01,,,0.07,meteohub,2013-06-25 12:32:00,
2013-06-25 05:42:00,60.6,60.1,29.92,SE,140,0.0,7.0,98,0.01,,,0.07,meteohub,2013-06-25 12:42:00,
2013-06-25 05:47:00,60.6,60.1,29.93,SSE,148,1.0,5.0,98,0.01,,,0.07,meteohub,2013-06-25 12:47:00,
2013-06-25 05:52:00,60.6,60.1,29.93,SE,143,0.0,6.0,98,0.01,,,0.07,meteohub,2013-06-25 12:52:00,
2013-06-25 05:57:00,60.6,60.1,29.93,SSE,161,2.0,6.0,98,0.01,,,0.07,meteohub,2013-06-25 12:57:00,
2013-06-25 06:02:00,60.6,60.1,29.93,SSE,167,0.0,6.0,98,0.02,,,0.08,meteohub,2013-06-25 13:02:00,
2013-06-25 06:07:00,60.6,60.1,29.93,SE,145,1.0,4.0,98,0.02,,,0.08,meteohub,2013-06-25 13:07:00,
2013-06-25 06:12:00,60.6,60.1,29.93,ESE,104,0.0,4.0,98,0.01,,,0.08,meteohub,2013-06-25 13:12:00,
2013-06-25 06:17:00,60.6,60.1,29.93,SSE,150,2.0,6.0,98,0.01,,,0.08,meteohub,2013-06-25 13:17:00,
2013-06-25 06:22:00,60.6,60.1,29.94,SE,126,0.0,6.0,98,0.02,,,0.09,meteohub,2013-06-25 13:22:00,
2013-06-25 06:27:00,60.6,60.1,29.94,SSE,161,2.0,6.0,98,0.02,,,0.09,meteohub,2013-06-25 13:27:00,
2013-06-25 06:32:00,60.6,60.1,29.94,SSE,158,0.0,4.0,98,0.03,,,0.10,meteohub,2013-06-25 13:32:00,
2013-06-25 06:37:00,60.6,60.1,29.94,East,98,0.0,3.0,98,0.03,,,0.10,meteohub,2013-06-25 13:37:00,
2013-06-25 06:42:00,60.6,60.1,29.94,SE,136,0.0,3.0,98,0.04,,,0.11,meteohub,2013-06-25 13:42:00,
2013-06-25 06:47:00,60.6,60.1,29.94,East,98,0.0,3.0,98,0.04,,,0.11,meteohub,2013-06-25 13:47:00,
2013-06-25 06:52:00,60.6,60.1,29.94,SSE,152,4.0,4.0,98,0.04,,,0.11,meteohub,2013-06-25 13:52:00,
2013-06-25 06:57:00,60.8,60.3,29.94,SE,139,1.0,5.0,98,0.03,,,0.11,meteohub,2013-06-25 13:57:00,
2013-06-25 07:02:00,60.6,60.1,29.94,SSE,163,2.0,6.0,98,0.03,,,0.11,meteohub,2013-06-25 14:02:00,
2013-06-25 07:07:00,60.6,60.1,29.94,ESE,122,3.0,8.0,98,0.03,,,0.11,meteohub,2013-06-25 14:07:00,
2013-06-25 07:12:00,60.6,60.1,29.94,South,174,5.0,8.0,98,0.03,,,0.11,meteohub,2013-06-25 14:12:00,
2013-06-25 07:17:00,60.6,60.1,29.94,ESE,121,5.0,8.0,98,0.03,,,0.11,meteohub,2013-06-25 14:17:00,
2013-06-25 07:22:00,60.8,60.3,29.94,ESE,120,3.0,9.0,98,0.02,,,0.11,meteohub,2013-06-25 14:22:00,
2013-06-25 07:27:00,61.0,60.4,29.94,SSE,147,1.0,9.0,98,0.02,,,0.11,meteohub,2013-06-25 14:27:00,
2013-06-25 07:32:00,61.3,60.8,29.94,ESE,119,0.0,12.0,98,0.01,,,0.11,meteohub,2013-06-25 14:32:00,
2013-06-25 07:37:00,61.3,60.8,29.94,SE,145,4.0,12.0,98,0.00,,,0.11,meteohub,2013-06-25 14:37:00,
2013-06-25 07:42:00,61.5,61.0,29.94,East,98,1.0,12.0,98,0.00,,,0.11,meteohub,2013-06-25 14:42:00,
2013-06-25 07:47:00,61.7,61.2,29.94,South,169,5.0,7.0,98,0.00,,,0.11,meteohub,2013-06-25 14:47:00,
2013-06-25 07:52:00,61.9,61.3,29.94,SSE,164,2.0,7.0,98,0.00,,,0.11,meteohub,2013-06-25 14:52:00,
2013-06-25 07:57:00,62.1,61.5,29.94,SSE,149,3.0,8.0,98,0.00,,,0.11,meteohub,2013-06-25 14:57:00,
2013-06-25 08:02:00,62.4,61.9,29.94,SE,130,3.0,9.0,98,0.00,,,0.11,meteohub,2013-06-25 15:02:00,
2013-06-25 08:07:00,62.8,61.9,29.94,SE,139,5.0,9.0,97,0.00,,,0.11,meteohub,2013-06-25 15:07:00,
2013-06-25 08:12:00,62.8,61.9,29.94,ESE,123,4.0,8.0,97,0.00,,,0.11,meteohub,2013-06-25 15:12:00,
2013-06-25 08:17:00,62.8,61.9,29.94,SE,138,7.0,7.0,97,0.01,,,0.12,meteohub,2013-06-25 15:17:00,
2013-06-25 08:22:00,62.4,61.5,29.94,SE,146,3.0,8.0,97,0.02,,,0.13,meteohub,2013-06-25 15:22:00,
2013-06-25 08:27:00,62.4,61.5,29.94,SE,140,4.0,8.0,97,0.02,,,0.13,meteohub,2013-06-25 15:27:00,
2013-06-25 08:32:00,62.8,61.9,29.94,SSE,148,3.0,8.0,97,0.02,,,0.13,meteohub,2013-06-25 15:32:00,
2013-06-25 08:37:00,63.0,62.1,29.95,SSE,167,0.0,9.0,97,0.02,,,0.13,meteohub,2013-06-25 15:37:00,
2013-06-25 08:42:00,63.0,62.1,29.95,SE,129,3.0,9.0,97,0.02,,,0.13,meteohub,2013-06-25 15:42:00,
2013-06-25 08:47:00,63.0,62.1,29.95,SE,136,2.0,9.0,97,0.02,,,0.13,meteohub,2013-06-25 15:47:00,
2013-06-25 08:52:00,62.8,61.9,29.95,SE,144,2.0,5.0,97,0.02,,,0.13,meteohub,2013-06-25 15:52:00,
2013-06-25 08:57:00,63.0,62.1,29.96,SSW,193,3.0,6.0,97,0.02,,,0.13,meteohub,2013-06-25 15:57:00,
2013-06-25 09:02:00,62.8,61.9,29.96,SSE,148,4.0,6.0,97,0.02,,,0.13,meteohub,2013-06-25 16:02:00,
2013-06-25 09:07:00,62.8,61.9,29.96,SE,128,0.0,6.0,97,0.03,,,0.14,meteohub,2013-06-25 16:07:00,
2013-06-25 09:12:00,62.8,61.9,29.96,SE,144,1.0,6.0,97,0.03,,,0.14,meteohub,2013-06-25 16:12:00,
2013-06-25 09:17:00,62.8,61.9,29.96,SSE,147,0.0,6.0,97,0.02,,,0.14,meteohub,2013-06-25 16:17:00,
2013-06-25 09:22:00,62.8,61.9,29.96,South,180,1.0,7.0,97,0.01,,,0.14,meteohub,2013-06-25 16:22:00,
2013-06-25 09:27:00,62.8,61.9,29.96,SE,131,0.0,7.0,97,0.01,,,0.14,meteohub,2013-06-25 16:27:00,
2013-06-25 09:32:00,62.6,61.7,29.97,SSE,152,1.0,6.0,97,0.01,,,0.14,meteohub,2013-06-25 16:32:00,
2013-06-25 09:37:00,62.8,61.9,29.97,SSE,157,3.0,6.0,97,0.01,,,0.14,meteohub,2013-06-25 16:37:00,
2013-06-25 09:42:00,62.8,61.9,29.97,SE,138,3.0,5.0,97,0.01,,,0.14,meteohub,2013-06-25 16:42:00,
2013-06-25 09:47:00,62.6,61.7,29.98,SSE,163,0.0,5.0,97,0.02,,,0.15,meteohub,2013-06-25 16:47:00,
2013-06-25 09:52:00,62.4,61.5,29.98,South,171,2.0,4.0,97,0.02,,,0.15,meteohub,2013-06-25 16:52:00,
2013-06-25 09:57:00,62.4,61.5,29.97,SW,222,0.0,5.0,97,0.02,,,0.15,meteohub,2013-06-25 16:57:00,
2013-06-25 10:02:00,62.4,61.5,29.97,South,190,4.0,5.0,97,0.02,,,0.15,meteohub,2013-06-25 17:02:00,
2013-06-25 10:07:00,62.4,61.5,29.97,SW,228,2.0,5.0,97,0.01,,,0.15,meteohub,2013-06-25 17:07:00,
2013-06-25 10:12:00,62.4,61.9,29.98,East,90,1.0,4.0,98,0.02,,,0.16,meteohub,2013-06-25 17:12:00,
2013-06-25 10:17:00,62.4,61.5,29.98,SE,140,0.0,5.0,97,0.02,,,0.16,meteohub,2013-06-25 17:17:00,
2013-06-25 10:22:00,62.4,61.9,29.98,SW,227,0.0,7.0,98,0.02,,,0.16,meteohub,2013-06-25 17:22:00,
2013-06-25 10:27:00,62.4,61.9,29.98,SE,139,2.0,7.0,98,0.02,,,0.16,meteohub,2013-06-25 17:27:00,
2013-06-25 10:32:00,62.4,61.9,29.98,NW,317,2.0,13.0,98,0.02,,,0.16,meteohub,2013-06-25 17:32:00,
2013-06-25 10:37:00,62.4,61.9,29.98,ENE,73,3.0,13.0,98,0.02,,,0.16,meteohub,2013-06-25 17:37:00,
2013-06-25 10:42:00,62.4,61.9,29.98,South,188,1.0,15.0,98,0.01,,,0.16,meteohub,2013-06-25 17:42:00,
2013-06-25 10:47:00,62.6,62.1,29.99,West,264,3.0,15.0,98,0.01,,,0.16,meteohub,2013-06-25 17:47:00,
2013-06-25 10:52:00,62.6,62.1,29.99,East,96,2.0,9.0,98,0.01,,,0.16,meteohub,2013-06-25 17:52:00,
2013-06-25 10:57:00,62.8,62.2,29.99,East,83,2.0,8.0,98,0.01,,,0.16,meteohub,2013-06-25 17:57:00,
2013-06-25 11:02:00,62.8,62.2,29.98,ENE,62,1.0,7.0,98,0.01,,,0.16,meteohub,2013-06-25 18:02:00,
2013-06-25 11:07:00,62.8,62.2,29.99,SSE,156,3.0,7.0,98,0.01,,,0.16,meteohub,2013-06-25 18:07:00,
2013-06-25 11:12:00,63.0,62.4,29.99,South,187,3.0,8.0,98,0.00,,,0.16,meteohub,2013-06-25 18:12:00,
2013-06-25 11:22:00,62.8,61.9,29.99,SSW,201,2.0,9.0,97,0.00,,,0.16,meteohub,2013-06-25 18:22:00,
2013-06-25 11:27:00,62.8,61.9,29.99,ENE,68,1.0,11.0,97,0.00,,,0.16,meteohub,2013-06-25 18:27:00,
2013-06-25 11:32:00,62.8,61.9,30.00,ENE,78,0.0,11.0,97,0.00,,,0.16,meteohub,2013-06-25 18:32:00,
2013-06-25 11:42:00,62.8,61.9,30.00,SE,146,2.0,8.0,97,0.00,,,0.16,meteohub,2013-06-25 18:42:00,
2013-06-25 11:47:00,63.0,62.1,30.00,SW,221,0.0,7.0,97,0.00,,,0.16,meteohub,2013-06-25 18:47:00,
2013-06-25 11:52:00,63.0,62.1,30.00,SSW,202,1.0,8.0,97,0.00,,,0.16,meteohub,2013-06-25 18:52:00,
2013-06-25 11:57:00,63.0,62.1,30.00,South,182,0.0,9.0,97,0.00,,,0.16,meteohub,2013-06-25 18:57:00,
2013-06-25 12:02:00,62.8,61.9,30.01,South,188,5.0,9.0,97,0.00,,,0.16,meteohub,2013-06-25 19:02:00,
2013-06-25 12:07:00,62.8,61.9,30.01,SE,142,1.0,11.0,97,0.00,,,0.16,meteohub,2013-06-25 19:07:00,
2013-06-25 12:17:00,62.4,61.5,30.01,SE,142,3.0,8.0,97,0.00,,,0.16,meteohub,2013-06-25 19:17:00,
2013-06-25 12:22:00,62.6,61.7,30.01,North,355,1.0,8.0,97,0.00,,,0.16,meteohub,2013-06-25 19:22:00,
2013-06-25 12:27:00,62.6,61.7,30.01,NE,44,0.0,8.0,97,0.00,,,0.16,meteohub,2013-06-25 19:27:00,
2013-06-25 12:32:00,62.8,61.9,30.01,SE,136,2.0,7.0,97,0.00,,,0.16,meteohub,2013-06-25 19:32:00,
2013-06-25 12:37:00,63.0,62.1,30.01,SE,138,0.0,7.0,97,0.00,,,0.16,meteohub,2013-06-25 19:37:00,
2013-06-25 12:42:00,63.0,62.1,30.01,ESE,116,1.0,7.0,97,0.00,,,0.16,meteohub,2013-06-25 19:42:00,
2013-06-25 12:47:00,63.1,62.2,30.01,SSW,212,3.0,5.0,97,0.00,,,0.16,meteohub,2013-06-25 19:47:00,
2013-06-25 12:52:00,63.1,62.2,30.01,SE,132,0.0,7.0,97,0.00,,,0.16,meteohub,2013-06-25 19:52:00,
2013-06-25 12:57:00,63.3,62.8,30.01,SE,135,4.0,7.0,98,0.00,,,0.16,meteohub,2013-06-25 19:57:00,
2013-06-25 13:02:00,63.5,63.0,30.01,SW,215,0.0,7.0,98,0.00,,,0.16,meteohub,2013-06-25 20:02:00,
2013-06-25 13:07:00,63.7,62.8,30.01,South,171,0.0,12.0,97,0.00,,,0.16,meteohub,2013-06-25 20:07:00,
2013-06-25 13:12:00,63.7,62.8,30.01,SW,223,0.0,12.0,97,0.00,,,0.16,meteohub,2013-06-25 20:12:00,
2013-06-25 13:17:00,63.9,63.0,30.01,SE,136,1.0,12.0,97,0.00,,,0.16,meteohub,2013-06-25 20:17:00,
2013-06-25 13:22:00,63.9,63.0,30.01,ESE,107,0.0,7.0,97,0.00,,,0.16,meteohub,2013-06-25 20:22:00,
2013-06-25 13:27:00,64.2,63.3,30.02,SSE,163,6.0,6.0,97,0.00,,,0.16,meteohub,2013-06-25 20:27:00,
2013-06-25 13:32:00,64.0,63.0,30.02,SSW,199,4.0,9.0,96,0.00,,,0.16,meteohub,2013-06-25 20:32:00,
2013-06-25 13:37:00,64.0,63.0,30.02,SSE,151,2.0,10.0,96,0.00,,,0.16,meteohub,2013-06-25 20:37:00,
2013-06-25 13:47:00,64.0,62.6,30.02,SW,220,4.0,10.0,95,0.00,,,0.16,meteohub,2013-06-25 20:47:00,
2013-06-25 13:52:00,64.0,63.0,30.02,SSW,209,0.0,10.0,96,0.00,,,0.16,meteohub,2013-06-25 20:52:00,
2013-06-25 13:57:00,64.0,62.6,30.02,ESE,105,1.0,10.0,95,0.00,,,0.16,meteohub,2013-06-25 20:57:00,
2013-06-25 14:02:00,64.0,62.6,30.02,SE,124,2.0,10.0,95,0.00,,,0.16,meteohub,2013-06-25 21:02:00,
2013-06-25 14:07:00,64.0,62.6,30.02,SSW,193,3.0,10.0,95,0.00,,,0.16,meteohub,2013-06-25 21:07:00,
2013-06-25 14:12:00,64.0,62.6,30.02,South,173,4.0,12.0,95,0.00,,,0.16,meteohub,2013-06-25 21:12:00,
2013-06-25 14:17:00,64.0,62.6,30.02,SSW,202,1.0,12.0,95,0.00,,,0.16,meteohub,2013-06-25 21:17:00,
2013-06-25 14:22:00,63.9,62.4,30.02,SSE,147,2.0,12.0,95,0.00,,,0.16,meteohub,2013-06-25 21:22:00,
2013-06-25 14:27:00,63.9,62.4,30.02,SSE,161,7.0,11.0,95,0.00,,,0.16,meteohub,2013-06-25 21:27:00,
2013-06-25 14:32:00,63.7,62.2,30.02,SSE,155,2.0,9.0,95,0.00,,,0.16,meteohub,2013-06-25 21:32:00,
2013-06-25 14:37:00,63.7,62.2,30.02,South,189,4.0,9.0,95,0.00,,,0.16,meteohub,2013-06-25 21:37:00,
2013-06-25 14:42:00,63.7,62.6,30.02,SSE,153,0.0,9.0,96,0.00,,,0.16,meteohub,2013-06-25 21:42:00,
2013-06-25 14:47:00,63.9,62.8,30.02,SSW,202,7.0,9.0,96,0.00,,,0.16,meteohub,2013-06-25 21:47:00,
2013-06-25 14:52:00,64.0,63.0,30.02,South,190,8.0,9.0,96,0.00,,,0.16,meteohub,2013-06-25 21:52:00,
2013-06-25 14:57:00,64.2,62.8,30.02,East,80,1.0,9.0,95,0.00,,,0.16,meteohub,2013-06-25 21:57:00,
2013-06-25 15:02:00,64.6,63.1,30.01,SW,235,0.0,9.0,95,0.00,,,0.16,meteohub,2013-06-25 22:02:00,
2013-06-25 15:07:00,64.6,63.1,30.01,SSE,164,4.0,9.0,95,0.00,,,0.16,meteohub,2013-06-25 22:07:00,
2013-06-25 15:12:00,64.8,63.0,30.01,South,191,2.0,6.0,94,0.00,,,0.16,meteohub,2013-06-25 22:12:00,
2013-06-25 15:17:00,64.8,63.0,30.01,WSW,248,0.0,6.0,94,0.00,,,0.16,meteohub,2013-06-25 22:17:00,
2013-06-25 15:22:00,64.8,63.0,30.01,WSW,258,4.0,6.0,94,0.00,,,0.16,meteohub,2013-06-25 22:22:00,
2013-06-25 15:27:00,65.1,63.3,30.01,SSW,203,0.0,7.0,94,0.00,,,0.16,meteohub,2013-06-25 22:27:00,
2013-06-25 15:32:00,65.1,63.0,30.01,South,190,3.0,8.0,93,0.00,,,0.16,meteohub,2013-06-25 22:32:00,
2013-06-25 15:37:00,65.5,63.3,30.01,SSE,163,2.0,10.0,93,0.00,,,0.16,meteohub,2013-06-25 22:37:00,
2013-06-25 15:42:00,65.8,63.5,30.01,South,179,1.0,10.0,92,0.00,,,0.16,meteohub,2013-06-25 22:42:00,
2013-06-25 15:47:00,65.8,63.5,30.01,SSE,162,6.0,9.0,92,0.00,,,0.16,meteohub,2013-06-25 22:47:00,
2013-06-25 15:52:00,65.8,63.5,30.00,SSE,152,5.0,10.0,92,0.00,,,0.16,meteohub,2013-06-25 22:52:00,
2013-06-25 15:57:00,65.8,63.5,30.00,SE,144,3.0,10.0,92,0.00,,,0.16,meteohub,2013-06-25 22:57:00,
2013-06-25 16:02:00,66.4,63.7,30.00,SSW,209,0.0,8.0,91,0.00,,,0.16,meteohub,2013-06-25 23:02:00,
2013-06-25 16:07:00,66.6,63.9,30.00,SW,220,1.0,10.0,91,0.00,,,0.16,meteohub,2013-06-25 23:07:00,
2013-06-25 16:12:00,66.7,63.7,30.00,SSE,147,1.0,10.0,90,0.00,,,0.16,meteohub,2013-06-25 23:12:00,
2013-06-25 16:17:00,67.5,64.4,30.00,SSE,154,1.0,9.0,90,0.00,,,0.16,meteohub,2013-06-25 23:17:00,
2013-06-25 16:22:00,67.5,64.0,30.00,South,180,3.0,9.0,89,0.00,,,0.16,meteohub,2013-06-25 23:22:00,
2013-06-25 16:27:00,67.3,64.2,30.00,South,186,1.0,9.0,90,0.00,,,0.16,meteohub,2013-06-25 23:27:00,
2013-06-25 16:32:00,67.1,64.0,30.00,SSE,165,9.0,9.0,90,0.00,,,0.16,meteohub,2013-06-25 23:32:00,
2013-06-25 16:37:00,66.9,63.9,30.00,SSE,165,3.0,9.0,90,0.00,,,0.16,meteohub,2013-06-25 23:37:00,
2013-06-25 16:42:00,66.9,63.9,30.00,South,181,2.0,12.0,90,0.00,,,0.16,meteohub,2013-06-25 23:42:00,
2013-06-25 16:47:00,66.7,63.7,30.00,SSW,197,3.0,12.0,90,0.00,,,0.16,meteohub,2013-06-25 23:47:00,
2013-06-25 16:52:00,66.4,63.7,30.00,South,174,1.0,12.0,91,0.00,,,0.16,meteohub,2013-06-25 23:52:00,
2013-06-25 16:57:00,66.6,64.2,30.00,SSE,153,3.0,10.0,92,0.00,,,0.16,meteohub,2013-06-25 23:57:00,
2013-06-25 17:02:00,66.6,63.5,30.00,SSW,200,3.0,8.0,90,0.00,,,0.16,meteohub,2013-06-26 00:02:00,
2013-06-25 17:07:00,66.2,63.1,30.00,SSE,161,4.0,8.0,90,0.00,,,0.16,meteohub,2013-06-26 00:07:00,
2013-06-25 17:12:00,66.0,63.3,30.00,SSW,202,1.0,8.0,91,0.00,,,0.16,meteohub,2013-06-26 00:12:00,
2013-06-25 17:17:00,66.0,63.3,30.00,ESE,105,1.0,8.0,91,0.00,,,0.16,meteohub,2013-06-26 00:17:00,
2013-06-25 17:22:00,65.8,62.8,30.00,SSW,213,5.0,7.0,90,0.00,,,0.16,meteohub,2013-06-26 00:22:00,
2013-06-25 17:27:00,65.7,63.0,30.00,East,82,1.0,11.0,91,0.00,,,0.16,meteohub,2013-06-26 00:27:00,
2013-06-25 17:32:00,65.7,63.0,30.00,SSW,202,5.0,11.0,91,0.00,,,0.16,meteohub,2013-06-26 00:32:00,
2013-06-25 17:37:00,65.1,62.4,30.00,South,178,5.0,10.0,91,0.00,,,0.16,meteohub,2013-06-26 00:37:00,
2013-06-25 17:42:00,64.8,62.4,30.00,ESE,106,1.0,7.0,92,0.00,,,0.16,meteohub,2013-06-26 00:42:00,
2013-06-25 17:47:00,64.8,62.4,30.00,SSE,163,2.0,7.0,92,0.00,,,0.16,meteohub,2013-06-26 00:47:00,
2013-06-25 17:52:00,64.2,61.9,29.99,ESE,113,7.0,7.0,92,0.00,,,0.16,meteohub,2013-06-26 00:52:00,
2013-06-25 17:57:00,64.0,61.7,29.99,SSE,164,3.0,10.0,92,0.00,,,0.16,meteohub,2013-06-26 00:57:00,
2013-06-25 18:02:00,63.9,61.9,29.99,SE,141,5.0,10.0,93,0.00,,,0.16,meteohub,2013-06-26 01:02:00,
2013-06-25 18:07:00,63.7,61.3,29.99,ENE,65,1.0,10.0,92,0.00,,,0.16,meteohub,2013-06-26 01:07:00,
2013-06-25 18:12:00,63.1,61.2,29.99,South,182,6.0,9.0,93,0.00,,,0.16,meteohub,2013-06-26 01:12:00,
2013-06-25 18:17:00,62.8,61.0,29.99,SSE,161,4.0,9.0,94,0.00,,,0.16,meteohub,2013-06-26 01:17:00,
2013-06-25 18:22:00,62.4,60.6,29.99,SE,133,2.0,9.0,94,0.00,,,0.16,meteohub,2013-06-26 01:22:00,
2013-06-25 18:27:00,62.2,60.8,29.99,SSW,199,5.0,11.0,95,0.00,,,0.16,meteohub,2013-06-26 01:27:00,
2013-06-25 18:32:00,62.2,60.8,29.99,West,271,3.0,11.0,95,0.00,,,0.16,meteohub,2013-06-26 01:32:00,
2013-06-25 18:37:00,62.1,60.6,29.99,SSW,192,3.0,11.0,95,0.00,,,0.16,meteohub,2013-06-26 01:37:00,
2013-06-25 18:42:00,61.9,60.8,29.99,SE,140,4.0,11.0,96,0.00,,,0.16,meteohub,2013-06-26 01:42:00,
2013-06-25 18:47:00,61.7,60.6,29.99,SSE,157,3.0,11.0,96,0.00,,,0.16,meteohub,2013-06-26 01:47:00,
2013-06-25 18:52:00,61.7,60.6,29.99,SW,220,1.0,11.0,96,0.00,,,0.16,meteohub,2013-06-26 01:52:00,
2013-06-25 18:57:00,61.7,60.8,29.99,SSE,151,5.0,9.0,97,0.00,,,0.16,meteohub,2013-06-26 01:57:00,
2013-06-25 19:02:00,61.9,61.0,29.99,SE,141,3.0,12.0,97,0.00,,,0.16,meteohub,2013-06-26 02:02:00,
2013-06-25 19:07:00,61.9,61.0,29.99,South,169,1.0,12.0,97,0.00,,,0.16,meteohub,2013-06-26 02:07:00,
2013-06-25 19:12:00,61.9,61.0,29.99,SSE,153,6.0,10.0,97,0.00,,,0.16,meteohub,2013-06-26 02:12:00,
2013-06-25 19:17:00,61.9,61.0,29.99,South,186,2.0,9.0,97,0.00,,,0.16,meteohub,2013-06-26 02:17:00,
2013-06-25 19:22:00,61.9,61.0,29.99,SSW,211,5.0,9.0,97,0.00,,,0.16,meteohub,2013-06-26 02:22:00,
2013-06-25 19:27:00,61.9,61.0,29.98,South,170,7.0,9.0,97,0.00,,,0.16,meteohub,2013-06-26 02:27:00,
2013-06-25 19:32:00,61.9,61.0,29.99,SE,144,3.0,9.0,97,0.00,,,0.16,meteohub,2013-06-26 02:32:00,
2013-06-25 19:37:00,61.5,61.0,29.99,SSE,152,4.0,9.0,98,0.00,,,0.16,meteohub,2013-06-26 02:37:00,
2013-06-25 19:42:00,61.5,61.0,29.99,SSE,151,3.0,9.0,98,0.00,,,0.16,meteohub,2013-06-26 02:42:00,
2013-06-25 19:47:00,61.5,61.0,29.99,SSE,153,0.0,7.0,98,0.00,,,0.16,meteohub,2013-06-26 02:47:00,
2013-06-25 19:52:00,61.3,60.8,29.99,SE,131,5.0,9.0,98,0.00,,,0.16,meteohub,2013-06-26 02:52:00,
2013-06-25 19:57:00,61.3,60.8,29.99,South,173,6.0,9.0,98,0.00,,,0.16,meteohub,2013-06-26 02:57:00,
2013-06-25 20:02:00,61.3,60.8,29.99,SSE,156,3.0,9.0,98,0.00,,,0.16,meteohub,2013-06-26 03:02:00,
2013-06-25 20:07:00,61.3,60.8,29.99,South,176,3.0,9.0,98,0.00,,,0.16,meteohub,2013-06-26 03:07:00,
2013-06-25 20:12:00,61.2,60.6,29.99,SSE,161,2.0,8.0,98,0.00,,,0.16,meteohub,2013-06-26 03:12:00,
2013-06-25 20:17:00,61.2,60.6,29.98,South,177,4.0,7.0,98,0.00,,,0.16,meteohub,2013-06-26 03:17:00,
2013-06-25 20:22:00,61.2,60.6,29.98,South,186,4.0,10.0,98,0.00,,,0.16,meteohub,2013-06-26 03:22:00,
2013-06-25 20:27:00,61.2,60.6,29.98,ESE,119,0.0,10.0,98,0.00,,,0.16,meteohub,2013-06-26 03:27:00,
2013-06-25 20:32:00,61.3,60.8,29.98,South,184,3.0,10.0,98,0.00,,,0.16,meteohub,2013-06-26 03:32:00,
2013-06-25 20:37:00,61.3,60.8,29.98,South,180,3.0,8.0,98,0.00,,,0.16,meteohub,2013-06-26 03:37:00,
2013-06-25 20:42:00,61.3,60.8,29.98,South,170,1.0,8.0,98,0.00,,,0.16,meteohub,2013-06-26 03:42:00,
2013-06-25 20:47:00,61.2,60.6,29.98,SW,234,4.0,5.0,98,0.00,,,0.16,meteohub,2013-06-26 03:47:00,
2013-06-25 20:52:00,61.2,60.6,29.99,South,184,0.0,5.0,98,0.00,,,0.16,meteohub,2013-06-26 03:52:00,
2013-06-25 20:57:00,61.2,60.6,29.99,SSE,150,2.0,6.0,98,0.00,,,0.16,meteohub,2013-06-26 03:57:00,
2013-06-25 21:02:00,61.2,60.6,29.99,SSE,160,0.0,6.0,98,0.00,,,0.16,meteohub,2013-06-26 04:02:00,
2013-06-25 21:07:00,61.2,60.6,29.99,SSE,153,0.0,6.0,98,0.00,,,0.16,meteohub,2013-06-26 04:07:00,
2013-06-25 21:12:00,61.3,60.8,29.99,ESE,115,1.0,6.0,98,0.00,,,0.16,meteohub,2013-06-26 04:12:00,
2013-06-25 21:17:00,61.3,60.8,29.99,South,185,5.0,6.0,98,0.01,,,0.16,meteohub,2013-06-26 04:17:00,
2013-06-25 21:22:00,61.3,60.8,29.99,South,173,2.0,5.0,98,0.01,,,0.17,meteohub,2013-06-26 04:22:00,
2013-06-25 21:27:00,61.3,61.0,29.99,SE,126,2.0,5.0,99,0.01,,,0.17,meteohub,2013-06-26 04:27:00,
2013-06-25 21:32:00,61.3,60.8,29.99,SSE,159,3.0,5.0,98,0.01,,,0.17,meteohub,2013-06-26 04:32:00,
2013-06-25 21:37:00,61.3,60.8,30.00,SSW,192,2.0,5.0,98,0.01,,,0.17,meteohub,2013-06-26 04:37:00,
2013-06-25 21:42:00,61.2,60.8,30.00,SSE,158,2.0,7.0,99,0.01,,,0.17,meteohub,2013-06-26 04:42:00,
2013-06-25 21:47:00,61.2,60.8,30.00,SSE,159,3.0,8.0,99,0.01,,,0.17,meteohub,2013-06-26 04:47:00,
2013-06-25 21:52:00,61.2,60.8,30.00,SSE,163,0.0,9.0,99,0.01,,,0.17,meteohub,2013-06-26 04:52:00,
2013-06-25 21:57:00,61.2,60.8,30.00,East,80,0.0,9.0,99,0.01,,,0.17,meteohub,2013-06-26 04:57:00,
2013-06-25 22:02:00,61.0,60.6,30.00,ESE,117,2.0,9.0,99,0.01,,,0.17,meteohub,2013-06-26 05:02:00,
2013-06-25 22:07:00,61.0,60.6,30.00,South,177,1.0,7.0,99,0.01,,,0.17,meteohub,2013-06-26 05:07:00,
2013-06-25 22:12:00,61.0,60.6,30.00,SSW,192,0.0,7.0,99,0.01,,,0.17,meteohub,2013-06-26 05:12:00,
2013-06-25 22:17:00,61.0,60.6,30.00,SE,132,2.0,6.0,99,0.00,,,0.17,meteohub,2013-06-26 05:17:00,
2013-06-25 22:22:00,61.0,60.6,30.00,SSE,157,0.0,6.0,99,0.00,,,0.17,meteohub,2013-06-26 05:22:00,
2013-06-25 22:27:00,61.2,60.8,30.00,SSE,157,0.0,6.0,99,0.00,,,0.17,meteohub,2013-06-26 05:27:00,
2013-06-25 22:32:00,61.2,60.8,30.00,SSE,156,1.0,6.0,99,0.00,,,0.17,meteohub,2013-06-26 05:32:00,
2013-06-25 22:37:00,61.2,60.8,30.00,SE,136,2.0,4.0,99,0.00,,,0.17,meteohub,2013-06-26 05:37:00,
2013-06-25 22:42:00,61.3,61.0,30.01,SSW,213,3.0,4.0,99,0.00,,,0.17,meteohub,2013-06-26 05:42:00,
2013-06-25 22:47:00,61.3,61.0,30.01,SSW,213,0.0,4.0,99,0.00,,,0.17,meteohub,2013-06-26 05:47:00,
2013-06-25 22:52:00,61.3,61.0,30.01,ESE,115,0.0,4.0,99,0.00,,,0.17,meteohub,2013-06-26 05:52:00,
2013-06-25 22:57:00,61.2,60.8,30.01,SSE,160,5.0,5.0,99,0.00,,,0.17,meteohub,2013-06-26 05:57:00,
2013-06-25 23:02:00,61.2,60.8,30.00,South,169,5.0,5.0,99,0.01,,,0.18,meteohub,2013-06-26 06:02:00,
2013-06-25 23:07:00,61.2,60.8,30.00,SE,144,0.0,7.0,99,0.01,,,0.18,meteohub,2013-06-26 06:07:00,
2013-06-25 23:12:00,61.0,60.6,30.00,SSW,194,0.0,7.0,99,0.01,,,0.18,meteohub,2013-06-26 06:12:00,
2013-06-25 23:17:00,60.8,60.4,30.01,SSE,163,2.0,9.0,99,0.01,,,0.18,meteohub,2013-06-26 06:17:00,
2013-06-25 23:22:00,60.6,60.3,30.01,SSE,158,0.0,9.0,99,0.01,,,0.18,meteohub,2013-06-26 06:22:00,
2013-06-25 23:27:00,60.6,60.3,30.00,South,175,6.0,9.0,99,0.01,,,0.18,meteohub,2013-06-26 06:27:00,
2013-06-25 23:32:00,60.6,60.3,30.00,ESE,103,2.0,6.0,99,0.01,,,0.18,meteohub,2013-06-26 06:32:00,
2013-06-25 23:37:00,60.6,60.3,30.00,SSE,162,0.0,6.0,99,0.01,,,0.18,meteohub,2013-06-26 06:37:00,
2013-06-25 23:42:00,60.6,60.3,30.00,SSE,168,0.0,6.0,99,0.01,,,0.18,meteohub,2013-06-26 06:42:00,
2013-06-25 23:47:00,60.8,60.4,30.01,South,171,2.0,6.0,99,0.01,,,0.18,meteohub,2013-06-26 06:47:00,
2013-06-25 23:52:00,60.8,60.4,30.00,SSE,165,0.0,6.0,99,0.01,,,0.18,meteohub,2013-06-26 06:52:00,
2013-06-25 23:57:00,61.0,60.6,30.00,SSE,165,0.0,7.0,99,0.01,,,0.18,meteohub,2013-06-26 06:57:00,